This is the latest recevied weather packets stored in our database for station/object N4MGC. If no packets are shown the sender has not sent any weather packets the latest 10 day(s).
| Time | Temp. | Humidity | Pressure | Rain* | Wind** | Luminosity | Snow |
|---|---|---|---|---|---|---|---|
| 1777915338 | 23.89° C | 48% | 1015.8 hPa | 0 mm | - | 549 W/m² | - |
| 1777915035 | 23.89° C | 52% | 1015.8 hPa | 0 mm | - | 726 W/m² | - |
| 1777914732 | 25° C | 48% | 1015.9 hPa | 0 mm | - | 749 W/m² | - |
| 1777914428 | 24.44° C | 50% | 1015.8 hPa | 0 mm | - | 507 W/m² | - |
| 1777914126 | 24.44° C | 49% | 1016 hPa | 0 mm | - | 757 W/m² | - |
| 1777913822 | 25° C | 47% | 1016 hPa | 0 mm | - | 747 W/m² | - |
| 1777913518 | 24.44° C | 49% | 1016.1 hPa | 0 mm | - | 753 W/m² | - |
| 1777913215 | 25° C | 53% | 1016.5 hPa | 0 mm | - | 743 W/m² | - |
| 1777912911 | 23.89° C | 51% | 1016.3 hPa | 0 mm | - | 735 W/m² | - |
| 1777912608 | 23.89° C | 52% | 1016.6 hPa | 0 mm | - | 736 W/m² | - |
| 1777912304 | 23.89° C | 53% | 1016.5 hPa | 0 mm | - | 750 W/m² | - |
| 1777912000 | 23.89° C | 53% | 1016.4 hPa | 0 mm | - | 747 W/m² | - |
| 1777911696 | 23.89° C | 57% | 1016.6 hPa | 0 mm | - | 753 W/m² | - |
| 1777911392 | 23.33° C | 55% | 1016.7 hPa | 0 mm | - | 738 W/m² | - |
| 1777911091 | 22.78° C | 55% | 1016.8 hPa | 0 mm | - | 776 W/m² | - |
| 1777910787 | 23.33° C | 54% | 1016.7 hPa | 0 mm | - | 769 W/m² | - |
| 1777910484 | 23.33° C | 57% | 1016.9 hPa | 0 mm | - | 738 W/m² | - |
| 1777910181 | 22.78° C | 57% | 1017.1 hPa | 0 mm | - | 680 W/m² | - |
| 1777909878 | 22.78° C | 57% | 1017 hPa | 0 mm | - | 706 W/m² | - |
| 1777909575 | 22.22° C | 59% | 1017 hPa | 0 mm | - | 747 W/m² | - |
| 1777909272 | 22.78° C | 59% | 1017.1 hPa | 0 mm | - | 757 W/m² | - |
| 1777908970 | 22.22° C | 57% | 1016.9 hPa | 0 mm | - | 670 W/m² | - |
| 1777908668 | 21.67° C | 61% | 1017.1 hPa | 0 mm | - | 668 W/m² | - |
| 1777908364 | 20.56° C | 60% | 1017.1 hPa | 0 mm | - | 722 W/m² | - |
| 1777908061 | 20.56° C | 63% | 1017.1 hPa | 0 mm | - | 766 W/m² | - |
* Rain latest hour (hover to see other rain measurements)
** Current wind speed in m/s (hover to see current wind gust speed)